Regional Weather Roundup
Issued by NWS

Home | Current Version | Previous Version | Text Only | Print | Product List | Glossary On
Versions: 1 2 3 4 5 6 7 8 9 10 11 12 13 14 15 16 17 18 19 20 21 22 23 24 25 26 27 28 29 30 31 32 33 34 35 36 37 38 39 40 41 42 43 44 45 46 47 48 49 50
536
ASUS44 KJAN 272303
RWRMS

MISSISSIPPI HOURLY WEATHER ROUNDUP
NATIONAL WEATHER SERVICE JACKSON MS
600 PM CDT SUN JUL 27 2014

NOTE: "FAIR: INDICATES FEW OR NO CLOUDS BELOW 12,000 FEET WITH NO
SIGNIFICANT WEATHER AND/OR OBSTRUCTIONS TO VISIBILITY.

MSZ001>002-007>008-010>013-018>021-025>028-034>036-280000-
NORTHWEST MISSISSIPPI

CITY           SKY/WX    TMP DP  RH WIND       PRES   REMARKS
CLARKSDALE     FAIR      90  79  70 SW5       29.95S HX 105
CLEVELAND      FAIR      91  80  70 SW7       29.96S HX 109
GREENWOOD      MOSUNNY   91  77  63 SW10      29.96F HX 104
GREENVILLE     MOSUNNY   92  75  57 SW13      29.96F HX 103
GRENADA        FAIR      88  75  66 SW7       29.96F HX  97
OXFORD         FAIR      88  75  66 W6        29.97S HX  97
TUNICA         MOCLDY    90  77  66 SW8       29.95S HX 102
$$

MSZ003>006-009-014>017-022>024-029>033-037>039-280000-
NORTHEAST MISSISSIPPI

CITY           SKY/WX    TMP DP  RH WIND       PRES   REMARKS
BELMONT        FAIR      85  77  75 SW6       29.95F HX  96
COLUMBUS AFB   MOSUNNY   90  75  60 W8        29.96F HX 100
CORINTH        FAIR      86  75  70 SW7       29.92F HX  95
GOLDN TRIANGLE MOSUNNY   91  73  55 W5        29.97F HX 100
STARKVILLE     FAIR      90  73  58 W5        29.97F HX  98
TUPELO         MOSUNNY   89  76  65 W7        29.95R HX 100
$$

MSZ040-058-280000-
CENTRAL MISSISSIPPI

CITY           SKY/WX    TMP DP  RH WIND       PRES   REMARKS
JACKSON INTL   MOSUNNY   90  73  57 W7        30.00S HX  98
JACKSON HAWKNS MOSUNNY   91  71  51 W9        30.01S HX  97
MERIDIAN KEY   PTSUNNY   91  73  55 W7        29.99S HX  99
MERIDIAN NAS   CLOUDY    92  71  50 VRB6      29.98F HX  98
RAYMOND        FAIR      91  86  84 W6        30.00F HX 122
VICKSBURG      MOSUNNY   91  74  57 VRB5      29.99S HX 100
$$

MSZ059>079-280000-
SOUTH MISSISSIPPI

CITY           SKY/WX    TMP DP  RH WIND       PRES   REMARKS
BROOKHAVEN     FAIR      91  75  59 SW8       30.04S HX 102
COLUMBIA       FAIR      91  75  59 VRB6      30.00S HX 102
HATTIESBURG    MOSUNNY   92  74  55 SW8       30.00F HX 101
MCCOMB         MOSUNNY   90  73  57 SW8       30.03S HX  98
NATCHEZ        SUNNY     91  73  55 W7        30.02S HX 100
PINE BELT      MOSUNNY   91  73  55 SW6       30.02F HX 100
$$

MSZ080>082-280000-
COASTAL MISSISSIPPI

CITY           SKY/WX    TMP DP  RH WIND       PRES   REMARKS
BAY ST LOUIS   MOSUNNY  N/A N/A N/A W5        30.01F
BILOXI         SUNNY     90  76  62 SW15G21   30.00F HX 101
PASCAGOULA     SUNNY     89  72  56 SW8       30.01F HX  96
GULFPORT       MOSUNNY   95  73  48 SW8       30.00F HX 104
$$



USA.gov is the U.S. government's official web portal to all federal, state and local government web resources and services.